BOH weather

Bournemouth Airport
Bournemouth, England, United Kingdom

Public forecast

Using degrees Celsius for public forecast. Weather courtesy of forecast.io.

Current aviation weather report (METAR) for Bournemouth Airport

Retrieved 2020/02/19 06:20 UTC (26 minutes ago):

EGHH 190620Z 26010KT CAVOK 05/02 Q1022

Aviation forecast (TAF) for Bournemouth Airport

Forecast is more than 12 hours old.

Retrieved 2013/12/01 21:21 UTC (6 years ago):

TAF TAF EGHH 010016Z 3021/0106 CNL